Home   Weather   Cham   Past weeks

Flag for Switzerland Past Weather in Cham, Zug, Switzerland — Yesterday and Last 2 Weeks

Now
79 °F

Warm.


Feels Like: 80 °F
Forecast: 61 / 79 °F
Wind: 12 mph from West

Location: Zuerich-Fluntern

Current Time: Jun 23, 2017 at 10:37:15 am

Latest Report: Jun 23, 2017 at 9:00 am


Visibility: N/A

Pressure: 29.99 "Hg

Humidity: 57%

Dew Point: 63 °F

Location of ChamLocation

Past Weather in Cham — Graph

°F

Cham Temperature Yesterday

Maximum temperature yesterday: 90 °F (at 4:00 pm)
Minimum temperature yesterday: 69 °F (at 6:00 am)
Average temperature yesterday: 80 °F

High & Low Weather Summary for the Past Weeks

 TemperatureHumidityPressure
High90 °F (Jun 22, 4:00 pm)96% (Jun 16, 2:00 am)30.30 "Hg (Jun 16, 2:00 am)
Low51 °F (Jun 8, 8:00 am)23% (Jun 8, 3:00 pm)29.88 "Hg (Jun 21, 7:00 pm)
Average71 °F58%30.05 "Hg
* Reported Jun 8 8:00 am — Jun 23 8:00 am, Cham. Weather by CustomWeather, © 2017

Note: Actual official high and low records may vary slightly from our data, if they occured in-between our weather recording intervals... More about our weather records

Advertising

Cham Weather History for the Previous 24 Hours

Scroll right to see more
 ConditionsComfort  
Time TempWeatherWind HumidityBarometerVisibility
8:00 am
Fri, Jun 23
78 °FWarm.10 mph59%29.98 "HgN/A
7:00 am76 °FMild.8 mph60%29.98 "HgN/A
6:00 am76 °FMild.5 mph59%29.98 "HgN/A
5:00 am77 °FWarm.8 mph55%29.96 "HgN/A
4:00 am78 °FWarm.8 mph55%29.96 "HgN/A
3:00 am79 °FWarm.6 mph54%29.96 "HgN/A
2:00 am80 °FWarm.9 mph53%29.95 "HgN/A
1:00 am80 °FWarm.7 mph53%29.95 "HgN/A
12:00 am80 °FWarm.7 mph51%29.94 "HgN/A
11:00 pm
Thu, Jun 22
81 °FWarm.8 mph49%29.92 "HgN/A
10:00 pm78 °FWarm.3 mph54%29.93 "HgN/A
9:00 pm83 °FWarm.7 mph41%29.91 "HgN/A
8:00 pm84 °FPassing clouds.8 mph44%29.89 "HgN/A
7:00 pm85 °FWarm.6 mph40%29.88 "HgN/A
6:00 pm87 °FPleasantly warm.6 mph34%29.88 "HgN/A
5:00 pm89 °FHot.6 mph34%29.88 "HgN/A
4:00 pm90 °FHot.9 mph25%29.89 "HgN/A
3:00 pm90 °FHot.7 mph28%29.90 "HgN/A
2:00 pm88 °FPassing clouds.5 mph23%29.93 "HgN/A
1:00 pm87 °FPleasantly warm.6 mph36%29.93 "HgN/A
12:00 pm84 °FWarm.2 mph43%29.96 "HgN/A
11:00 am82 °FWarm.3 mph48%29.98 "HgN/A
10:00 am78 °FWarm.2 mph55%29.99 "HgN/A
Weather by CustomWeather, © 2017

See weather overviewHow to use our weather pages